Simultaneous Nadir Overpasses (SNOs) Predictions

Prediction of SNOs between NOAA-15 and METOP-C Satellite Orbit:

Table of predicted SNOs for the next 14.0 days since TLE Epoch: 1/6/2024
Index Date (NOAA-15) Time (NOAA-15) Lat,Lon (NOAA-15) SZA (NOAA-15 ) Date (METOP-C) Time (METOP-C) Lat,Lon (METOP-C) SZA (METOP-C ) Distance(km) Time Diff (sec)
1 01/16/2024 20:08:50 81.06, -83.75 103.57 01/16/2024 20:07:38 81.08, -83.60 103.56 2.76 72
2 01/16/2024 20:59:23 -81.07, 83.47 76.45 01/16/2024 20:58:19 -81.06, 83.44 76.48 0.98 64
3 01/16/2024 21:49:51 81.08,-109.23 103.54 01/16/2024 21:49:00 81.07,-109.10 103.53 2.24 51
4 01/16/2024 22:40:23 -81.06, 58.37 76.46 01/16/2024 22:39:40 -81.07, 58.31 76.47 1.34 43
5 01/16/2024 23:30:51 81.07,-134.34 103.54 01/16/2024 23:30:21 81.08,-134.23 103.54 2.20 30
6 01/17/2024 00:21:24 -81.07, 32.89 76.48 01/17/2024 00:21:02 -81.07, 32.82 76.50 1.57 22
7 01/17/2024 01:11:52 81.08,-159.82 103.51 01/17/2024 01:11:43 81.07,-159.72 103.51 1.83 9
8 01/17/2024 02:02:24 -81.07, 7.78 76.49 01/17/2024 02:02:23 -81.07, 7.69 76.49 1.78 1
9 01/17/2024 02:52:52 81.07, 175.07 103.50 01/17/2024 02:53:04 81.08, 175.15 103.52 1.65 12
10 01/17/2024 03:43:25 -81.08, -17.69 76.52 01/17/2024 03:43:45 -81.07, -17.81 76.53 2.21 20
11 01/17/2024 04:33:53 81.08, 149.59 103.48 01/17/2024 04:34:26 81.07, 149.65 103.49 1.53 33
12 01/17/2024 05:24:25 -81.07, -42.80 76.52 01/17/2024 05:25:06 -81.08, -42.93 76.51 2.33 41
13 01/17/2024 06:14:53 81.08, 124.48 103.47 01/17/2024 06:15:47 81.08, 124.53 103.50 1.11 54
14 01/17/2024 07:05:26 -81.08, -68.27 76.55 01/17/2024 07:06:28 -81.07, -68.43 76.55 2.86 62



Historial Predications of SNOs between NOAA-15 and METOP-C
